Change the Weather History Date:

Thursday, June 13, 2013

  Actual Average Record
Temperature  
Mean Temperature 81 °F 75 °F  
Max Temperature 90 °F 84 °F 96 °F (1954)
Min Temperature 71 °F 66 °F 51 °F (1887)
Degree Days  
Heating Degree Days 0 0  
Month to date heating degree days 0 5  
Since 1 June heating degree days 0 5  
Since 1 July heating degree days 3765 4030  
Cooling Degree Days 16 10  
Month to date cooling degree days 138 107  
Year to date cooling degree days 323 241  
Since 1 June cooling degree days 138 107  
Growing Degree Days 31 (Base 50)    
Moisture  
Dew Point 66 °F    
Average Humidity 66    
Maximum Humidity 87    
Minimum Humidity 44    
Precipitation  
Precipitation 0.02 in 0.12 in 2.04 in (1939)
Month to date precipitation 5.86 1.63  
Year to date precipitation 18.44 17.59  
Snow  
Snow 0.00 in 0.00 in - ()
Month to date snowfall 0.0 0.0  
Since 1 July snowfall 3.1 15.4  
Snow Depth 0.00 in    
Sea Level Pressure  
Sea Level Pressure 29.60 in    
Wind  
Wind Speed 11 mph (West)    
Max Wind Speed 28 mph    
Max Gust Speed 39 mph    
Visibility 9 miles    
Events Rain , Thunderstorm    
T = Trace of Precipitation, MM = Missing Value Source: NWS Daily Summary

Daily Weather History Graph

Daily Weather History Graph

Search for Another Location

Airport or City:

Trip Planner

Search our weather history database for the weather conditions in past years. The results will help you decide how hot, cold, wet, or windy it might be!

Date:

Astronomy

Jun. 13, 2013 Rise Set
Actual Time 5:42 AM EDT 8:34 PM EDT
Civil Twilight 5:10 AM EDT 9:06 PM EDT
Nautical Twilight 4:30 AM EDT 9:46 PM EDT
Astronomical Twilight 3:44 AM EDT 10:32 PM EDT
Moon 10:14 AM EDT (6/13) 11:42 PM EDT (6/13)
Length of Visible Light 15h 55m
Length of Day
14h 51m
Waxing Crescent, 21% of the Moon is Illuminated
Jun 13
Waxing Crescent
Jun 16
First Quarter
Jun 23
Full
Jun 30
Last Quarter
Jul 8
New

Hourly Weather History & Observations

Time (EDT) Temp. Heat Index Dew Point Humidity Pressure Visibility Wind Dir Wind Speed Gust Speed Precip Events Conditions
12:52 AM 77.0 °F - 69.1 °F 76% 29.78 in 8.0 mi NE 6.9 mph - N/A   Scattered Clouds
1:52 AM 77.0 °F - 68.0 °F 74% 29.78 in 10.0 mi East 3.5 mph - N/A   Scattered Clouds
2:52 AM 77.0 °F - 69.1 °F 76% 29.77 in 9.0 mi Calm Calm - N/A   Overcast
3:33 AM 75.2 °F - 69.8 °F 83% 29.75 in 9.0 mi Calm Calm - 0.00 in Rain Light Rain
3:52 AM 75.9 °F - 69.1 °F 79% 29.75 in 10.0 mi Calm Calm - 0.00 in   Overcast
4:52 AM 75.0 °F - 66.9 °F 76% 29.70 in 10.0 mi SE 5.8 mph - 0.00 in   Overcast
5:52 AM 73.9 °F - 68.0 °F 82% 29.69 in 10.0 mi South 10.4 mph - N/A   Overcast
6:52 AM 73.9 °F - 70.0 °F 87% 29.67 in 9.0 mi South 3.5 mph - N/A   Overcast
7:28 AM 75.2 °F - 71.6 °F 89% 29.66 in 7.0 mi South 8.1 mph - N/A   Overcast
7:49 AM 75.2 °F - 71.6 °F 89% 29.65 in 7.0 mi South 11.5 mph - N/A   Overcast
7:52 AM 75.9 °F - 71.1 °F 85% 29.65 in 7.0 mi South 10.4 mph - N/A   Overcast
8:52 AM 80.1 °F 84.2 °F 73.0 °F 79% 29.65 in 8.0 mi SSW 9.2 mph - N/A   Overcast
9:00 AM 80.6 °F 84.6 °F 71.6 °F 74% 29.69 in 10.0 mi West 13.8 mph - N/A   Overcast
9:05 AM 80.6 °F 84.6 °F 71.6 °F 74% 29.69 in 10.0 mi NW 12.7 mph - N/A   Overcast
9:10 AM 80.6 °F 84.6 °F 71.6 °F 74% 29.69 in 10.0 mi WNW 19.6 mph 31.1 mph N/A   Overcast
9:22 AM 78.8 °F - 66.2 °F 65% 29.70 in 7.0 mi NW 18.4 mph 31.1 mph 0.00 in Rain Light Rain
9:30 AM 77.0 °F - 66.2 °F 69% 29.68 in 3.0 mi NW 23.0 mph 33.4 mph 0.00 in Rain , Thunderstorm Light Thunderstorms and Rain
9:34 AM 75.2 °F - 66.2 °F 73% 29.68 in 7.0 mi WNW 17.3 mph 34.5 mph 0.00 in Rain , Thunderstorm Light Thunderstorms and Rain
9:52 AM 75.0 °F - 66.0 °F 73% 29.65 in 10.0 mi West 10.4 mph - 0.00 in Rain Light Rain
10:52 AM 81.0 °F 82.5 °F 64.0 °F 56% 29.62 in 10.0 mi SW 16.1 mph 24.2 mph N/A   Overcast
11:52 AM 81.0 °F 82.2 °F 63.0 °F 54% 29.57 in 10.0 mi WSW 11.5 mph - 0.00 in   Mostly Cloudy
12:52 PM 84.9 °F 85.9 °F 63.0 °F 48% 29.55 in 10.0 mi SW 21.9 mph 28.8 mph N/A   Overcast
1:52 PM 87.1 °F 88.3 °F 64.0 °F 46% 29.52 in 10.0 mi SSW 21.9 mph 26.5 mph N/A   Mostly Cloudy
2:52 PM 89.1 °F 90.3 °F 64.0 °F 43% 29.52 in 10.0 mi SW 16.1 mph 26.5 mph N/A   Mostly Cloudy
3:28 PM 87.8 °F 89.4 °F 64.4 °F 46% 29.49 in 10.0 mi SSW 16.1 mph - N/A   Overcast
3:52 PM 86.0 °F 87.6 °F 64.9 °F 49% 29.47 in 10.0 mi SSW 11.5 mph - N/A   Overcast
3:58 PM 86.0 °F 87.3 °F 64.4 °F 48% 29.46 in 10.0 mi SSW 13.8 mph - N/A Thunderstorm Thunderstorm
4:04 PM 86.0 °F 87.3 °F 64.4 °F 48% 29.50 in 10.0 mi NW 21.9 mph 38.0 mph N/A Thunderstorm Thunderstorm
4:08 PM 78.8 °F - 66.2 °F 65% 29.49 in 4.0 mi WNW 23.0 mph 38.0 mph 0.00 in Rain , Thunderstorm Thunderstorms and Rain
4:13 PM 73.4 °F - 68.0 °F 83% 29.50 in 9.0 mi NW 18.4 mph 38.0 mph 0.02 in Rain , Thunderstorm Light Thunderstorms and Rain
4:21 PM 75.2 °F - 68.0 °F 78% 29.50 in 9.0 mi NW 15.0 mph 23.0 mph 0.02 in   Overcast
4:33 PM 75.2 °F - 68.0 °F 78% 29.50 in 10.0 mi WNW 9.2 mph 20.7 mph 0.02 in   Overcast
4:52 PM 78.1 °F - 68.0 °F 71% 29.51 in 10.0 mi Variable 4.6 mph - 0.02 in   Overcast
5:05 PM 77.0 °F - 66.2 °F 69% 29.51 in 10.0 mi West 6.9 mph - N/A   Overcast
5:52 PM 77.0 °F - 64.9 °F 66% 29.50 in 10.0 mi West 11.5 mph - N/A   Overcast
6:52 PM 78.1 °F - 64.0 °F 62% 29.52 in 10.0 mi West 12.7 mph - N/A   Overcast
7:28 PM 75.2 °F - 62.6 °F 65% 29.52 in 10.0 mi WNW 18.4 mph 27.6 mph 0.00 in Rain Light Rain
7:37 PM 75.2 °F - 64.4 °F 69% 29.52 in 10.0 mi WNW 11.5 mph 23.0 mph 0.00 in   Overcast
7:52 PM 77.0 °F - 63.0 °F 62% 29.52 in 10.0 mi WNW 13.8 mph 21.9 mph 0.00 in   Overcast
8:52 PM 73.9 °F - 57.0 °F 55% 29.56 in 10.0 mi NW 24.2 mph 39.1 mph N/A   Mostly Cloudy
9:52 PM 73.0 °F - 57.0 °F 57% 29.58 in 10.0 mi WNW 11.5 mph 26.5 mph N/A   Scattered Clouds
10:52 PM 72.0 °F - 57.0 °F 59% 29.59 in 10.0 mi WNW 12.7 mph 20.7 mph N/A   Scattered Clouds
11:52 PM 72.0 °F - 53.1 °F 51% 29.61 in 10.0 mi NW 15.0 mph 24.2 mph N/A   Mostly Cloudy